DW9025 Shrewsbury MA US current weather conditions

sailwx.info

Wind from 351 at 0 knots gusting 5

Air temperature 26.1° C
Dewpoint 23.0° C

Last reported at 2020-Jul-10 18:00 UTC.
Time now 2020-Jul-10 19:00 UTC

Location: N 42°11' W 071°52'.
View on Google Maps.

See reports from other nearby stations

  
Tides and Currents Weather Stations Pressure Air Temp Water Temp Dewpoint Dewpoint Depression Visibility Wind Speed Wind Dir Waves Ship Positions
date/time (UTC)wind fromknots sea level pressurealtimeterstation pressurevisibilityair tempwater tempwave heightnotes
2020-Jul-10 18:00 351 0 gusting 5 26.1
2020-Jul-10 17:45 160 26.7
2020-Jul-10 17:30 328 26.1
2020-Jul-10 17:15 053 1 gusting 4 26.1
2020-Jul-10 17:00 024 0 gusting 3 26.7
2020-Jul-10 16:45 264 0 gusting 6 26.7
2020-Jul-10 16:30 224 27.2
2020-Jul-10 16:15 335 3 gusting 6 26.1
2020-Jul-10 16:00 043 1 gusting 6 26.1
2020-Jul-10 15:45 011 26.1
2020-Jul-10 15:31 348 1 gusting 6 26.1
2020-Jul-10 15:16 015 3 gusting 7 26.1
2020-Jul-10 15:00 346 2 gusting 6 25.6
2020-Jul-10 14:47 011 0 gusting 6 25.0
2020-Jul-10 14:30 328 0 gusting 7 25.0
2020-Jul-10 14:16 245 24.4
2020-Jul-10 14:00 005 23.9
2020-Jul-10 13:45 015 0 gusting 3 23.3
2020-Jul-10 13:31 108 23.3
2020-Jul-10 13:16 043 22.8
2020-Jul-10 13:00 030 0 gusting 3 22.8
2020-Jul-10 12:46 179 22.2
2020-Jul-10 12:30 118 22.2
2020-Jul-10 12:15 238 22.2
2020-Jul-10 12:00 222 0 gusting 2 22.2
2020-Jul-10 11:45 217 22.2
2020-Jul-10 11:30 214 22.2
2020-Jul-10 11:16 132 22.2
2020-Jul-10 11:01 165 21.7
2020-Jul-10 10:46 229 21.7
2020-Jul-10 10:31 229 21.7
2020-Jul-10 10:16 229 21.7
2020-Jul-10 10:03 229 21.1
2020-Jul-10 09:46 229 21.1
2020-Jul-10 09:31 229 21.1
2020-Jul-10 09:16 165 21.1
2020-Jul-10 09:01 104 21.1
2020-Jul-10 08:46 155 21.1
2020-Jul-10 08:30 153 21.1
2020-Jul-10 08:16 235 21.1
2020-Jul-10 08:00 146 0 gusting 3 21.1
2020-Jul-10 07:45 108 21.1
2020-Jul-10 07:31 219 21.1
2020-Jul-10 07:15 102 21.1
2020-Jul-10 07:00 108 21.1
2020-Jul-10 06:45 231 21.1
2020-Jul-10 06:30 226 21.1
2020-Jul-10 06:15 116 21.1
2020-Jul-10 06:00 222 21.1
2020-Jul-10 05:45 181 21.1
2020-Jul-10 05:30 220 21.7
2020-Jul-10 05:16 208 21.7
2020-Jul-10 05:03 133 21.7
2020-Jul-10 04:47 131 21.7
2020-Jul-10 04:17 105 21.7
2020-Jul-10 04:01 186 21.7
2020-Jul-10 03:46 186 22.2
2020-Jul-10 03:31 218 22.2
2020-Jul-10 03:15 193 22.2
2020-Jul-10 03:01 207 22.2
2020-Jul-10 02:45 242 22.8
2020-Jul-10 02:30 230 22.8
2020-Jul-10 02:15 113 22.8
2020-Jul-10 02:00 160 23.3
2020-Jul-10 01:46 120 23.9
2020-Jul-10 01:30 217 23.9
2020-Jul-10 01:15 027 24.4
2020-Jul-10 01:00 187 25.0
2020-Jul-10 00:45 210 25.0
2020-Jul-10 00:31 226 0 gusting 2 25.6
2020-Jul-10 00:16 120 25.6
2020-Jul-10 00:01 134 26.1
2020-Jul-09 23:46 165 0 gusting 3 26.7
2020-Jul-09 23:32 123 0 gusting 4 27.2
2020-Jul-09 23:16 160 27.8
2020-Jul-09 23:01 110 0 gusting 5 27.8
2020-Jul-09 22:47 235 1 gusting 6 28.3
2020-Jul-09 22:31 120 0 gusting 6 28.9
2020-Jul-09 22:15 212 0 gusting 5 29.4
2020-Jul-09 22:00 091 0 gusting 7 30.0
2020-Jul-09 21:45 145 2 gusting 5 30.6
2020-Jul-09 21:30 105 0 gusting 2 31.1
2020-Jul-09 21:15 228 0 gusting 4 30.6
2020-Jul-09 21:00 180 31.1
2020-Jul-09 20:45 138 0 gusting 5 31.7
2020-Jul-09 20:30 193 31.1
2020-Jul-09 20:15 112 1 gusting 6 31.1
2020-Jul-09 20:00 114 0 gusting 2 30.6
2020-Jul-09 19:46 116 31.1
2020-Jul-09 19:31 132 1 gusting 7 31.7
2020-Jul-09 19:16 217 0 gusting 3 31.1
2020-Jul-09 19:00 141 31.1
2020-Jul-09 18:46 128 31.1
2020-Jul-09 18:31 229 31.7
2020-Jul-09 18:16 195 31.7
2020-Jul-09 18:02 114 1 gusting 4 31.1
2020-Jul-09 17:45 201 31.1
2020-Jul-09 17:30 120 31.1
2020-Jul-09 17:15 131 30.6
2020-Jul-09 17:00 115 30.0
2020-Jul-09 16:45 166 30.6
2020-Jul-09 16:30 030 30.6
2020-Jul-09 16:15 163 30.0
2020-Jul-09 16:00 104 0 gusting 2 29.4
2020-Jul-09 15:32 174 0 gusting 2 28.9
2020-Jul-09 15:16 219 0 gusting 2 28.3
2020-Jul-09 15:01 030 28.3
2020-Jul-09 14:47 202 28.3
2020-Jul-09 14:32 103 28.3
2020-Jul-09 14:16 105 27.8
2020-Jul-09 14:01 016 27.8
2020-Jul-09 13:46 132 26.7
2020-Jul-09 13:30 032 26.7
2020-Jul-09 13:15 098 26.1
2020-Jul-09 13:00 194 25.6
2020-Jul-09 12:45 135 25.0
2020-Jul-09 12:15 193 24.4
2020-Jul-09 12:00 156 23.9
2020-Jul-09 11:45 123 23.3
2020-Jul-09 11:31 179 22.8
2020-Jul-09 11:16 158 22.8
2020-Jul-09 11:01 126 22.2
2020-Jul-09 10:47 131 22.2
2020-Jul-09 10:31 135 21.7
2020-Jul-09 10:16 129 21.7
2020-Jul-09 10:01 141 21.7
2020-Jul-09 09:46 150 21.1
2020-Jul-09 09:31 150 21.1
2020-Jul-09 09:15 150 21.7
2020-Jul-09 09:00 135 21.7
2020-Jul-09 08:45 193 21.7
2020-Jul-09 08:30 134 21.7
2020-Jul-09 08:15 094 21.7
2020-Jul-09 08:00 133 21.7
2020-Jul-09 07:45 117 21.7
2020-Jul-09 07:31 095 21.7
2020-Jul-09 07:16 142 21.7
2020-Jul-09 07:01 123 21.7
2020-Jul-09 06:46 129 21.7
2020-Jul-09 06:30 087 21.7
2020-Jul-09 06:15 136 21.7
2020-Jul-09 06:00 141 21.7
2020-Jul-09 05:45 215 21.7
2020-Jul-09 05:30 148 21.7
2020-Jul-09 05:15 146 21.7
2020-Jul-09 05:00 160 21.7
2020-Jul-09 04:45 110 21.7
2020-Jul-09 04:30 107 21.7
2020-Jul-09 04:15 139 21.7
2020-Jul-09 04:01 129 21.7
2020-Jul-09 03:46 184 0 gusting 4 21.1
2020-Jul-09 03:31 146 21.1
2020-Jul-09 03:16 188 21.1
2020-Jul-09 03:02 218 21.7
2020-Jul-09 02:46 229 21.7
2020-Jul-09 02:31 110 21.7
2020-Jul-09 02:16 116 0 gusting 3 21.7
2020-Jul-09 02:00 107 22.2
2020-Jul-09 01:46 155 22.2
2020-Jul-09 01:31 162 22.2
2020-Jul-09 01:16 169 22.2
2020-Jul-09 01:01 208 22.2
2020-Jul-09 00:46 129 22.8
2020-Jul-09 00:30 156 0 gusting 2 22.8
2020-Jul-09 00:15 158 23.3
2020-Jul-09 00:00 135 23.3
2020-Jul-08 23:45 136 23.3
2020-Jul-08 23:31 110 23.9
2020-Jul-08 23:16 199 24.4
2020-Jul-08 23:00 217 24.4
2020-Jul-08 22:46 108 25.0
2020-Jul-08 22:30 207 0 gusting 4 25.0
2020-Jul-08 22:16 226 0 gusting 6 25.6
2020-Jul-08 22:01 113 0 gusting 7 25.6
2020-Jul-08 21:46 190 26.1
2020-Jul-08 21:31 205 0 gusting 6 26.1
2020-Jul-08 21:16 139 0 gusting 12 26.1
2020-Jul-08 21:01 204 1 gusting 6 26.1
2020-Jul-08 20:45 204 2 gusting 9 26.7
2020-Jul-08 20:31 173 1 gusting 6 26.7
2020-Jul-08 20:16 165 0 gusting 6 27.2
2020-Jul-08 20:01 169 0 gusting 8 27.2
2020-Jul-08 19:45 190 2 gusting 5 27.2
2020-Jul-08 19:30 148 2 gusting 6 27.8
2020-Jul-08 19:15 135 3 gusting 7 27.8
2020-Jul-08 19:00 096 2 gusting 8 27.8